Location: M?digepalle
(16.1753°N, 80.3496°E)
Time: 07:54:50
(UTC+00:00)

EO 1 Delta rocket - Pass Details

Date: 29 October 2020
Orbit: 696 x 1793 km, 95.4° (Epoch: 27 November)

Event Time Altitude Azimuth Distance (km) Brightness Sun altitude
Exits shadow 13:58:38 29° 350° (N) 1,265 5.1 -26.5°
Maximum altitude 14:00:51 62° 280° (W) 812 4.3 -27.1°
Drops below altitude 10° 14:05:49 10° 200° (SSW) 2,356 6.8 -28.2°
Sets 14:08:20 0° 196° (SSW) 3,398 7.6 -28.8°
